[[{"header":{"parameterUnit":"m.s-1","parameterCategory":1,"la1":30.2991,"la2":30.254,"lo1":-89.0895,"lo2":-89.0444,"dy":0.0017,"dx":0.0017,"nx":28,"ny":28,"refTime":"2023-08-28T21:00:00:Z","depth":0,"parameterNumber":2,"parameterNumberName":"U-component_of_WINDS"},"data":[0,0,0,0,0,0,0,0,0,0,0,0,0,0,0,0,0,0,0,0,0,0,0,0,0,0,0,0,0,0,0,0,0,0,0,0,0,0,0,0,0,0,0,0,0,0,0,0,0,0,0,0,0,0,0,0,0,0,-1.5284,-1.5283,0,-1.5212,-1.5211,-1.521,-1.5151,-1.5151,-1.515,-1.515,-1.5072,-1.5071,-1.5069,0,0,0,0,0,0,0,0,0,0,0,0,0,-1.5367,-1.5366,-1.5284,-1.5283,-1.5282,-1.5212,-1.5211,-1.521,-1.5151,-1.5151,-1.515,-1.5149,-1.5073,-1.5071,-1.5069,0,0,0,0,0,0,0,0,0,0,0,0,0,-1.5317,-1.5366,-1.5284,-1.5245,-1.5241,-1.5212,-1.5211,-1.521,-1.5152,-1.5151,-1.515,-1.5149,-1.5073,-1.5071,-1.5069,-1.5073,0,0,-1.5062,-1.5061,0,0,0,0,0,0,0,0,-1.532,-1.5314,-1.5252,-1.5247,-1.5243,-1.519,-1.5212,-1.5164,-1.5152,-1.5185,-1.515,-1.5149,-1.5112,-1.5106,-1.5095,-1.5069,-1.5066,-1.5062,-1.5061,-1.506,-1.5059,0,0,0,0,0,0,0,-1.5323,-1.5317,-1.5255,-1.5251,-1.5245,-1.5229,-1.5221,-1.5202,-1.5154,-1.5182,-1.5178,-1.517,-1.5109,-1.5097,-1.5093,-1.5065,-1.5062,-1.506,-1.5059,-1.5058,-1.5037,-1.5038,0,0,0,0,0,0,-1.5334,-1.532,-1.5258,-1.5253,-1.528,-1.5229,-1.5219,-1.5208,-1.5155,-1.5146,-1.5171,-1.5168,-1.5101,-1.5095,-1.509,-1.5089,-1.506,-1.5058,-1.5056,-1.5036,-1.5037,-1.5038,0,0,0,0,0,0,-1.5336,-1.5329,-1.5261,-1.5285,-1.5275,-1.5228,-1.5215,-1.5207,-1.5194,-1.5146,-1.5137,-1.5168,-1.51,-1.5093,-1.5077,-1.5086,-1.5057,-1.5055,-1.5035,-1.5036,-1.5037,-1.509,0,0,0,0,0,0,-1.5338,-1.533,-1.5332,-1.5286,-1.5274,-1.5251,-1.5216,-1.5206,-1.5191,-1.5186,-1.514,-1.5132,-1.5099,-1.5081,-1.5075,-1.5082,-1.5053,-1.5034,-1.5036,-1.5037,-1.5087,-1.5093,-1.5098,0,0,0,0,0,-1.5341,-1.5349,-1.5332,-1.5325,-1.5276,-1.5252,-1.5245,-1.5208,-1.5192,-1.5193,-1.5162,-1.5133,-1.5086,-1.508,-1.5073,-1.5079,-1.5033,-1.5035,-1.5037,-1.5085,-1.5092,-1.5098,0,0,0,0,0,0,-1.5397,-1.5343,-1.5323,-1.5317,-1.5289,-1.5242,-1.5242,-1.5217,-1.5193,-1.5189,-1.5143,-1.5133,-1.5122,-1.5099,-1.5093,-1.5079,-1.5056,-1.5056,-1.5095,-1.5101,-1.5106,-1.5112,-1.5051,0,0,0,0,0,-1.5409,-1.5394,-1.5347,-1.5346,-1.5333,-1.529,-1.5278,-1.5252,-1.5221,-1.5209,-1.5177,-1.5147,-1.5125,-1.5112,-1.5089,-1.5084,-1.5072,-1.5084,-1.509,-1.5094,-1.5095,-1.5088,-1.5093,-1.5044,-1.5044,-1.5044,0,0,-1.5432,-1.5401,-1.5395,-1.5356,-1.5332,-1.5317,-1.5281,-1.5267,-1.5255,-1.5207,-1.519,-1.5165,-1.5129,-1.5118,-1.5112,-1.5098,-1.5106,-1.5096,-1.51,-1.5099,-1.5091,-1.5095,-1.5099,-1.5045,-1.5045,-1.5044,0,0,-1.5468,-1.5443,-1.5439,-1.5415,-1.5379,-1.535,-1.5349,-1.5305,-1.5287,-1.5269,-1.5233,-1.5216,-1.518,-1.5155,-1.5138,-1.5162,-1.5135,-1.5156,-1.5183,-1.5177,-1.5181,-1.5184,-1.5191,-1.5194,-1.5157,-1.5157,-1.5157,0,-1.5501,-1.5478,-1.5439,-1.5427,-1.5411,-1.5367,-1.5361,-1.5339,-1.5298,-1.5286,-1.5272,-1.5225,-1.5198,-1.5179,-1.5185,-1.5173,-1.5169,-1.5161,-1.5184,-1.5186,-1.5189,-1.5195,-1.5198,-1.516,-1.5159,-1.5159,-1.5159,0,-1.5521,-1.5505,-1.5506,-1.5467,-1.545,-1.5441,-1.5399,-1.5387,-1.5362,-1.5334,-1.5315,-1.5281,-1.525,-1.5243,-1.5218,-1.5221,-1.5214,-1.5193,-1.5168,-1.5197,-1.5202,-1.5204,-1.5164,-1.5163,-1.5162,-1.5161,0,0,-1.559,-1.5529,-1.553,-1.5511,-1.5467,-1.5453,-1.5441,-1.5411,-1.5401,-1.5373,-1.536,-1.533,-1.531,-1.529,-1.5261,-1.5257,-1.5276,-1.5235,-1.5233,-1.5243,-1.5274,-1.529,-1.5294,-1.5257,-1.5258,-1.5258,-1.5277,0,-1.5617,-1.5595,-1.5559,-1.5548,-1.5532,-1.5489,-1.5478,-1.5449,-1.5422,-1.5404,-1.5373,-1.5352,-1.5327,-1.5315,-1.5308,-1.5275,-1.5281,-1.5273,-1.5244,-1.5243,-1.5254,-1.5297,-1.5314,-1.5334,-1.5279,-1.5279,-1.5279,0,-1.5647,-1.5622,-1.5609,-1.5565,-1.5557,-1.5548,-1.5517,-1.55,-1.5465,-1.5446,-1.5423,-1.5392,-1.5375,-1.5353,-1.5328,-1.5324,-1.5309,-1.5291,-1.5291,-1.5286,-1.5263,-1.5292,-1.5339,-1.5342,-1.5282,-1.5282,-1.5282,0,-1.5697,-1.566,-1.5647,-1.5632,-1.5581,-1.5575,-1.5553,-1.5518,-1.5502,-1.5474,-1.5462,-1.5433,-1.5417,-1.5393,-1.5354,-1.5342,-1.5333,-1.5308,-1.5315,-1.5316,-1.5314,-1.5315,-1.5359,-1.5307,-1.5307,-1.5307,-1.5307,0,-1.5731,-1.5725,-1.5669,-1.5661,-1.5652,-1.5609,-1.5601,-1.5575,-1.5543,-1.5528,-1.5489,-1.5476,-1.5425,-1.5405,-1.5374,-1.5357,-1.535,-1.5333,-1.5324,-1.5336,-1.5338,-1.5325,-1.5323,-1.5307,-1.5307,-1.5307,-1.5307,0,-1.5786,-1.5749,-1.5731,-1.5684,-1.5672,-1.5667,-1.5625,-1.5615,-1.5585,-1.5567,-1.556,-1.5513,-1.5487,-1.5445,-1.5407,-1.5386,-1.5374,-1.5361,-1.5386,-1.5381,-1.539,-1.5389,-1.5426,-1.5428,-1.5376,-1.5377,-1.5377,0,-1.581,-1.5804,-1.5756,-1.5744,-1.5723,-1.5704,-1.5687,-1.5644,-1.5628,-1.5587,-1.5581,-1.5552,-1.5527,-1.5487,-1.5448,-1.5418,-1.5403,-1.5418,-1.5399,-1.541,-1.5402,-1.5403,-1.5401,-1.5423,-1.5424,-1.5425,-1.5425,0,-1.5856,-1.5838,-1.5816,-1.5787,-1.5768,-1.5743,-1.5716,-1.5707,-1.5658,-1.5642,-1.5615,-1.5595,-1.5556,-1.5527,-1.5491,-1.5467,-1.5437,-1.5432,-1.5431,-1.5443,-1.5457,-1.5448,-1.5398,-1.5431,-1.543,-1.543,-1.543,-1.5429,-1.5896,-1.5888,-1.5852,-1.5828,-1.5804,-1.5779,-1.5766,-1.5735,-1.5713,-1.5678,-1.5653,-1.5628,-1.5591,-1.554,-1.5517,-1.5495,-1.5482,-1.5482,-1.5482,-1.5482,-1.5486,-1.5461,-1.5488,-1.5488,-1.5488,-1.5488,-1.5487,0,-1.5939,-1.5914,-1.5892,-1.5856,-1.5836,-1.5811,-1.5779,-1.5764,-1.5743,-1.5712,-1.5687,-1.5655,-1.5627,-1.5586,-1.5553,-1.5544,-1.5529,-1.5536,-1.5536,-1.5531,-1.55,-1.5503,-1.5549,-1.5549,-1.5549,-1.5549,-1.5549,-1.5549,-1.5959,-1.5944,-1.5921,-1.5892,-1.5866,-1.5842,-1.5826,-1.5802,-1.5776,-1.5743,-1.572,-1.5693,-1.5657,-1.5622,-1.5593,-1.5582,-1.5571,-1.5583,-1.5567,-1.5539,-1.5533,-1.5528,-1.553,-1.5581,-1.5581,-1.5599,-1.5599,-1.5599]},{"header":{"parameterUnit":"m.s-1","parameterCategory":1,"la1":30.2991,"la2":30.254,"lo1":-89.0895,"lo2":-89.0444,"dy":0.0017,"dx":0.0017,"nx":28,"ny":28,"refTime":"2023-08-28T21:00:00:Z","depth":0,"parameterNumber":3,"parameterNumberName":"V-component_of_WINDS"},"data":[0,0,0,0,0,0,0,0,0,0,0,0,0,0,0,0,0,0,0,0,0,0,0,0,0,0,0,0,0,0,0,0,0,0,0,0,0,0,0,0,0,0,0,0,0,0,0,0,0,0,0,0,0,0,0,0,0,0,-3.4621,-3.4622,0,-3.4711,-3.4712,-3.4713,-3.4734,-3.4734,-3.4733,-3.4733,-3.482,-3.4823,-3.4826,0,0,0,0,0,0,0,0,0,0,0,0,0,-3.4461,-3.4464,-3.4621,-3.4622,-3.4623,-3.4711,-3.4712,-3.4713,-3.4734,-3.4734,-3.4733,-3.4732,-3.4819,-3.4823,-3.4826,0,0,0,0,0,0,0,0,0,0,0,0,0,-3.4538,-3.4464,-3.462,-3.4644,-3.4647,-3.471,-3.4712,-3.4713,-3.4735,-3.4734,-3.4733,-3.4732,-3.4818,-3.4822,-3.4827,-3.4871,0,0,-3.484,-3.4842,0,0,0,0,0,0,0,0,-3.4534,-3.4544,-3.464,-3.4643,-3.4646,-3.4711,-3.4688,-3.4766,-3.4735,-3.4701,-3.4733,-3.4731,-3.4784,-3.4791,-3.481,-3.4875,-3.4879,-3.484,-3.4843,-3.4845,-3.4846,0,0,0,0,0,0,0,-3.4528,-3.454,-3.4656,-3.4641,-3.4645,-3.4648,-3.4658,-3.4703,-3.4746,-3.4704,-3.4706,-3.4716,-3.4786,-3.4806,-3.4812,-3.4881,-3.484,-3.4844,-3.4847,-3.4849,-3.4984,-3.4985,0,0,0,0,0,0,-3.452,-3.4536,-3.4653,-3.4659,-3.4587,-3.4652,-3.4663,-3.4691,-3.4746,-3.4754,-3.4717,-3.4717,-3.4799,-3.4807,-3.4815,-3.4869,-3.4845,-3.4849,-3.4851,-3.4983,-3.4984,-3.4985,0,0,0,0,0,0,-3.4516,-3.453,-3.465,-3.4598,-3.4613,-3.4656,-3.4686,-3.4693,-3.4713,-3.4756,-3.4763,-3.473,-3.4798,-3.4809,-3.4857,-3.4873,-3.4851,-3.4855,-3.4981,-3.4983,-3.4984,-3.4979,0,0,0,0,0,0,-3.4512,-3.4529,-3.4548,-3.4598,-3.4616,-3.4692,-3.4687,-3.4695,-3.4721,-3.4722,-3.477,-3.4777,-3.4799,-3.485,-3.4861,-3.4878,-3.4858,-3.498,-3.4982,-3.4984,-3.4978,-3.498,-3.4982,0,0,0,0,0,-3.4506,-3.4542,-3.4549,-3.4563,-3.4641,-3.4693,-3.4703,-3.4728,-3.4722,-3.474,-3.4768,-3.4776,-3.4869,-3.4855,-3.4867,-3.4886,-3.4979,-3.4982,-3.4984,-3.4977,-3.4979,-3.4982,0,0,0,0,0,0,-3.4492,-3.4549,-3.4557,-3.4611,-3.4647,-3.4696,-3.472,-3.473,-3.4767,-3.4766,-3.4795,-3.4805,-3.485,-3.4873,-3.4856,-3.493,-3.4924,-3.4929,-3.4914,-3.4917,-3.4919,-3.4912,-3.4862,0,0,0,0,0,-3.4495,-3.4534,-3.4581,-3.4624,-3.4642,-3.4678,-3.4701,-3.4718,-3.4755,-3.477,-3.4801,-3.4835,-3.4872,-3.4896,-3.4933,-3.4981,-3.499,-3.5,-3.5002,-3.5003,-3.5007,-3.5031,-3.5035,-3.4992,-3.4992,-3.4992,0,0,-3.4502,-3.4538,-3.4561,-3.4623,-3.4652,-3.4689,-3.4691,-3.4731,-3.4758,-3.4775,-3.4822,-3.4846,-3.4886,-3.4933,-3.4956,-3.4954,-3.502,-3.5006,-3.5007,-3.501,-3.5034,-3.5038,-3.5041,-3.4994,-3.4993,-3.4993,0,0,-3.4534,-3.4566,-3.4605,-3.4634,-3.4679,-3.4702,-3.4711,-3.4758,-3.4775,-3.4822,-3.4836,-3.4867,-3.4931,-3.4959,-3.4981,-3.502,-3.5028,-3.5031,-3.5041,-3.5065,-3.5068,-3.5071,-3.5083,-3.5087,-3.5034,-3.5034,-3.5034,0,-3.4536,-3.4595,-3.4623,-3.4662,-3.4687,-3.4706,-3.4743,-3.477,-3.4823,-3.4839,-3.4836,-3.4915,-3.4944,-3.4997,-3.5006,-3.5024,-3.5033,-3.5026,-3.5066,-3.5069,-3.5072,-3.5084,-3.5089,-3.5034,-3.5034,-3.5034,-3.5034,0,-3.4595,-3.4635,-3.466,-3.4713,-3.4741,-3.4779,-3.481,-3.4835,-3.4848,-3.487,-3.4917,-3.4951,-3.4994,-3.5008,-3.5021,-3.5062,-3.5059,-3.506,-3.5054,-3.5076,-3.5087,-3.5092,-3.5034,-3.5034,-3.5034,-3.5034,0,0,-3.4621,-3.4687,-3.4696,-3.4719,-3.4768,-3.4799,-3.4836,-3.4879,-3.4899,-3.4935,-3.4965,-3.5017,-3.5019,-3.5044,-3.506,-3.508,-3.5106,-3.5079,-3.508,-3.5082,-3.5151,-3.5149,-3.5154,-3.5112,-3.5113,-3.5114,-3.5147,0,-3.4658,-3.4728,-3.4752,-3.4809,-3.4844,-3.4861,-3.4893,-3.4926,-3.4947,-3.4979,-3.5002,-3.5038,-3.5038,-3.5053,-3.5074,-3.5099,-3.512,-3.5097,-3.5138,-3.514,-3.5127,-3.516,-3.5159,-3.5188,-3.5152,-3.5152,-3.5153,0,-3.4711,-3.4748,-3.4808,-3.4851,-3.4867,-3.4896,-3.4935,-3.4966,-3.5002,-3.5016,-3.5043,-3.5057,-3.5094,-3.5086,-3.5136,-3.5119,-3.5137,-3.5151,-3.5153,-3.5157,-3.5147,-3.5164,-3.5199,-3.5203,-3.5161,-3.516,-3.516,0,-3.4722,-3.4786,-3.483,-3.4849,-3.4901,-3.492,-3.4943,-3.4978,-3.5001,-3.5035,-3.505,-3.5088,-3.5108,-3.5135,-3.5158,-3.515,-3.5205,-3.5199,-3.5216,-3.5215,-3.5226,-3.5225,-3.5263,-3.524,-3.5239,-3.5239,-3.5239,0,-3.4759,-3.4795,-3.4836,-3.4862,-3.4902,-3.4928,-3.4966,-3.4989,-3.5019,-3.5049,-3.5065,-3.5092,-3.5121,-3.5151,-3.5169,-3.5206,-3.5215,-3.5226,-3.523,-3.5224,-3.5223,-3.5236,-3.5234,-3.5241,-3.524,-3.524,-3.524,0,-3.4779,-3.4808,-3.4856,-3.4901,-3.4913,-3.4939,-3.4977,-3.5002,-3.5023,-3.506,-3.5071,-3.5104,-3.514,-3.5165,-3.5211,-3.5223,-3.5263,-3.5267,-3.5251,-3.5253,-3.5268,-3.5265,-3.5315,-3.5322,-3.5294,-3.5294,-3.5295,0,-3.48,-3.4828,-3.4876,-3.4897,-3.492,-3.4955,-3.4978,-3.5004,-3.5028,-3.507,-3.5089,-3.5127,-3.5158,-3.5214,-3.5241,-3.5276,-3.528,-3.5295,-3.5286,-3.5278,-3.5279,-3.5276,-3.5278,-3.5296,-3.5297,-3.5297,-3.5297,0,-3.4835,-3.4848,-3.4883,-3.4922,-3.495,-3.4981,-3.5013,-3.5029,-3.506,-3.5086,-3.5123,-3.5147,-3.5194,-3.523,-3.5267,-3.5287,-3.5296,-3.53,-3.5305,-3.5299,-3.5288,-3.5292,-3.5254,-3.5298,-3.5298,-3.5298,-3.5298,-3.5298,-3.4856,-3.488,-3.4917,-3.4954,-3.4981,-3.501,-3.5035,-3.506,-3.5092,-3.5133,-3.5146,-3.5184,-3.5216,-3.5267,-3.5288,-3.5316,-3.5315,-3.5324,-3.5326,-3.5327,-3.5326,-3.5284,-3.5323,-3.5323,-3.5323,-3.5323,-3.5323,0,-3.489,-3.4915,-3.4949,-3.4993,-3.5021,-3.5028,-3.5063,-3.5086,-3.512,-3.515,-3.518,-3.5222,-3.5256,-3.5285,-3.532,-3.5337,-3.5342,-3.5345,-3.5344,-3.5348,-3.5326,-3.5317,-3.5341,-3.5341,-3.5341,-3.5341,-3.5341,-3.5341,-3.4912,-3.4953,-3.4969,-3.5023,-3.5047,-3.5085,-3.5104,-3.513,-3.5154,-3.52,-3.5229,-3.5248,-3.5277,-3.5314,-3.5345,-3.5352,-3.5364,-3.5366,-3.5374,-3.5352,-3.535,-3.5348,-3.534,-3.5368,-3.5368,-3.5394,-3.5394,-3.5394]}]]